Home   Weather   Prague   Past weeks
Flag for Czech Republic

Past Weather in Prague, Czech Republic — Yesterday and Last 2 Weeks

Now
66 °F

Passing clouds.


Feels Like: 66 °F
Forecast: 60 / 53 °F
Wind: 2 mph from North

Location: Václav Havel Airport Prague

Current Time: May 21, 2019 at 6:56:03 pm

Latest Report: May 21, 2019 at 6:00 pm


Visibility: N/A

Pressure: 29.71 "Hg

Humidity: 56%

Dew Point: 50 °F

Location of PragueLocation

Past Weather in Prague — Graph

°F

Prague Temperature Yesterday

Maximum temperature yesterday: 61 °F (at 4:00 pm)
Minimum temperature yesterday: 50 °F (at 5:00 am)
Average temperature yesterday: 56 °F

High & Low Weather Summary for the Past Weeks

 TemperatureHumidityPressure
High73 °F (May 19, 4:00 pm)100% (May 15, 6:30 pm)30.51 "Hg (May 15, 6:30 pm)
Low30 °F (May 7, 4:00 am)32% (May 8, 3:00 pm)29.56 "Hg (May 9, 12:30 am)
Average50 °F71%29.92 "Hg
* Reported May 6 5:00 pm — May 21 5:30 pm, Prague. Weather by CustomWeather, © 2019

Note: Actual official high and low records may vary slightly from our data, if they occured in-between our weather recording intervals... More about our weather records

Advertising

Prague Weather History for the Previous 24 Hours

Scroll right to see more
 ConditionsComfort  
Time TempWeatherWind HumidityBarometerVisibility
5:30 pm
Tue, May 21
66 °FPassing clouds.5 mph52%29.71 "HgN/A
5:00 pm66 °FPassing clouds.2 mph56%29.71 "HgN/A
4:30 pm64 °FPassing clouds.6 mph60%29.71 "HgN/A
4:00 pm66 °FScattered clouds.5 mph56%29.71 "HgN/A
3:30 pm68 °FScattered clouds.2 mph53%29.68 "HgN/A
3:00 pm66 °FPassing clouds.5 mph56%29.68 "HgN/A
2:30 pm64 °FScattered clouds.5 mph60%29.68 "HgN/A
2:00 pm63 °FScattered clouds.5 mph64%29.68 "HgN/A
1:30 pm63 °FBroken clouds.5 mph64%29.68 "HgN/A
1:00 pm63 °FBroken clouds.6 mph64%29.68 "HgN/A
12:30 pm63 °FPartly sunny.5 mph59%29.68 "HgN/A
12:00 pm61 °FBroken clouds.6 mph63%29.68 "HgN/A
11:30 am59 °FPartly sunny.6 mph68%29.68 "HgN/A
11:00 am59 °FPartly sunny.3 mph68%29.65 "HgN/A
10:30 am59 °FPartly sunny.3 mph72%29.65 "HgN/A
10:00 am57 °FBroken clouds.5 mph77%29.65 "HgN/A
9:30 am59 °FPartly sunny.5 mph72%29.65 "HgN/A
9:00 am57 °FPartly sunny.2 mph77%29.62 "HgN/A
8:30 am55 °FScattered clouds.7 mph82%29.62 "HgN/A
8:00 am54 °FPassing clouds.6 mph88%29.62 "HgN/A
7:30 am54 °FPassing clouds.6 mph88%29.62 "HgN/A
7:00 am52 °FPassing clouds.5 mph94%29.62 "HgN/A
6:30 am50 °FPassing clouds.3 mph94%29.59 "HgN/A
6:00 am48 °FPassing clouds.3 mph94%29.59 "HgN/A
5:30 am46 °FScattered clouds.5 mph93%29.59 "HgN/A
5:00 am48 °FFog.2 mph94%29.59 "HgN/A
4:43 am48 °FFog.5 mph94%29.59 "Hg6 mi
4:00 am50 °FClear.7 mph94%29.59 "Hg10 mi
3:30 am48 °FClear.5 mph100%29.59 "Hg10 mi
3:00 am50 °FClear.1 mph94%29.59 "Hg10 mi
2:30 am50 °FClear.6 mph100%29.59 "Hg10 mi
2:00 am50 °FClear.5 mph94%29.59 "Hg10 mi
1:30 am52 °FClear.7 mph88%29.59 "Hg10 mi
1:00 am54 °FPassing clouds.7 mph88%29.59 "HgN/A
12:30 am54 °FClear.5 mph88%29.59 "Hg10 mi
12:00 am54 °FClear.5 mph88%29.56 "Hg10 mi
11:30 pm
Mon, May 20
54 °FClear.7 mph88%29.56 "Hg10 mi
11:00 pm55 °FPassing clouds.5 mph82%29.56 "HgN/A
10:30 pm55 °FPassing clouds.6 mph82%29.59 "HgN/A
10:00 pm55 °FPassing clouds.6 mph88%29.59 "HgN/A
9:30 pm57 °FPassing clouds.5 mph82%29.56 "HgN/A
9:00 pm57 °FScattered showers. Passing clouds.5 mph82%29.56 "HgN/A
8:30 pm57 °FScattered clouds.5 mph88%29.56 "HgN/A
8:00 pm59 °FPassing clouds.5 mph77%29.56 "HgN/A
7:30 pm59 °FPassing clouds.3 mph82%29.56 "HgN/A
7:00 pm59 °FScattered clouds.6 mph82%29.56 "HgN/A
6:30 pm59 °FScattered clouds.7 mph77%29.56 "HgN/A
6:21 pm59 °FScattered clouds.6 mph82%29.56 "HgN/A
6:00 pm59 °FScattered clouds.6 mph82%29.56 "HgN/A
Weather by CustomWeather, © 2019

See weather overview